Clarksburg, WV

10:45 PM EST on November 11, 2019 (GMT -0500)
Benedum

Weather History for KCKB - September, 2019

Change the Weather History Date:

Monday, September 30, 2019

  Actual Average Record
Temperature  
Mean Temperature 79 °F -  
Max Temperature 90 °F 71 °F 94 °F (1953)
Min Temperature 68 °F 47 °F 30 °F (1942)
Cooling Degree Days 14    
Month to date cooling degree days 243  
Year to date cooling degree days 1280  
Growing Degree Days 30 (Base 50)    
Moisture  
Dew Point 65 °F    
Average Humidity 67    
Maximum Humidity 90    
Minimum Humidity 44    
Precipitation  
Precipitation 0.21 in - - ()
Month to date precipitation 0.56  
Year to date precipitation 32.07  
Sea Level Pressure  
Sea Level Pressure 30.13 in    
Wind  
Wind Speed 3 mph (NNE)    
Max Wind Speed 22 mph    
Max Gust Speed 28 mph    
Visibility 8 miles    
Events Rain    
Averages and records for this station are not official NWS values.
T = Trace of Precipitation, MM = Missing Value Source: NWS Daily Summary

Daily Weather History Graph

Daily Weather History Graph

Search for Another Location

Airport or City:

Astronomy

Sep. 30, 2019 Rise Set
Actual Time 7:15 AM EDT 7:05 PM EDT
Civil Twilight 6:49 AM EDT 7:32 PM EDT
Nautical Twilight 6:17 AM EDT 8:03 PM EDT
Astronomical Twilight 5:46 AM EDT 8:34 PM EDT
Moon 9:17 AM EDT (9/30) 8:40 PM EDT (9/30)
Length of Visible Light 12h 43m
Length of Day
11h 49m
Waxing Crescent, 5% of the Moon is Illuminated
Sep 30
Waxing Crescent
Oct 5
First Quarter
Oct 13
Full
Oct 21
Last Quarter
Oct 27
New

Hourly Weather History & Observations

Time (EDT) Temp. Heat Index Dew Point Humidity Pressure Visibility Wind Dir Wind Speed Gust Speed Precip Events Conditions
12:53 AM 70.0 °F - 66.0 °F 87% 30.16 in 6.0 mi Calm Calm - N/A   Mostly Cloudy
1:53 AM 70.0 °F - 64.9 °F 84% 30.15 in 7.0 mi Calm Calm - N/A   Overcast
2:53 AM 70.0 °F - 66.0 °F 87% 30.14 in 7.0 mi Calm Calm - N/A   Overcast
3:53 AM 69.1 °F - 64.9 °F 87% 30.12 in 5.0 mi NE 3.5 mph - N/A   Mostly Cloudy
4:53 AM 70.0 °F - 66.0 °F 87% 30.12 in 8.0 mi Calm Calm - N/A   Mostly Cloudy
5:53 AM 69.1 °F - 64.9 °F 87% 30.14 in 8.0 mi NE 8.1 mph - N/A   Scattered Clouds
6:53 AM 70.0 °F - 64.9 °F 84% 30.15 in 10.0 mi Calm Calm - N/A   Mostly Cloudy
7:53 AM 70.0 °F - 64.9 °F 84% 30.15 in 9.0 mi Calm Calm - N/A   Mostly Cloudy
8:53 AM 72.0 °F - 66.0 °F 81% 30.15 in 10.0 mi Calm Calm - N/A   Mostly Cloudy
9:53 AM 70.0 °F - 66.0 °F 87% 30.19 in 1.8 mi ENE 9.2 mph 21.9 mph 0.17 in Rain Heavy Rain
10:03 AM 70.0 °F - 66.0 °F 87% 30.24 in 3.0 mi NNE 9.2 mph - 0.04 in Rain Light Rain
10:28 AM 71.1 °F - 66.0 °F 84% 30.23 in 10.0 mi East 5.8 mph - 0.04 in   Mostly Cloudy
10:53 AM 72.0 °F - 66.0 °F 81% 30.19 in 10.0 mi ESE 4.6 mph - 0.04 in   Scattered Clouds
11:53 AM 73.9 °F - 66.0 °F 76% 30.18 in 10.0 mi ESE 3.5 mph - N/A   Partly Cloudy
12:53 PM 80.1 °F 82.3 °F 66.9 °F 64% 30.15 in 10.0 mi Calm Calm - N/A   Clear
1:53 PM 84.0 °F 85.8 °F 64.9 °F 53% 30.13 in 10.0 mi West 3.5 mph - N/A   Clear
2:53 PM 87.1 °F 88.9 °F 64.9 °F 48% 30.10 in 10.0 mi NW 4.6 mph - N/A   Clear
3:53 PM 89.1 °F 91.0 °F 64.9 °F 45% 30.08 in 10.0 mi West 5.8 mph - N/A   Clear
4:53 PM 90.0 °F 91.3 °F 64.0 °F 42% 30.06 in 9.0 mi WNW 8.1 mph - N/A   Clear
5:53 PM 87.1 °F 88.9 °F 64.9 °F 48% 30.06 in 10.0 mi North 4.6 mph - N/A   Clear
6:53 PM 84.0 °F 85.8 °F 64.9 °F 53% 30.06 in 10.0 mi Calm Calm - N/A   Clear
7:53 PM 78.1 °F - 66.0 °F 66% 30.07 in 10.0 mi Calm Calm - N/A   Clear
8:53 PM 75.0 °F - 66.0 °F 73% 30.07 in 10.0 mi Calm Calm - N/A   Clear
9:53 PM 72.0 °F - 66.0 °F 81% 30.08 in 10.0 mi Calm Calm - N/A   Clear
10:53 PM 70.0 °F - 64.9 °F 84% 30.09 in 7.0 mi Calm Calm - N/A   Clear
11:53 PM 70.0 °F - 64.9 °F 84% 30.08 in 8.0 mi Calm Calm - N/A   Clear